Location: ??????
(41.3794°N, 22.5014°E)
Time: 07:36:26
(UTC+00:00)

Nadezhda 3 Rocket - Pass Details

Date: 30 November 2020
Orbit: 956 x 1000 km, 82.9° (Epoch: 17 January)

Event Time Altitude Azimuth Distance (km) Brightness Sun altitude
Rises 16:53:28 0° 182° (S) 3,701 7.2 -20.5°
Reaches altitude 10° 16:55:58 10° 182° (S) 2,759 6.5 -21.0°
Maximum altitude 17:02:19 82° 95° (E) 1,015 3.9 -22.1°
Drops below altitude 10° 17:08:43 10° 9° (N) 2,777 6.2 -23.3°
Sets 17:11:15 0° 9° (N) 3,728 6.9 -23.8°
